Location: Zagreb
(45.8000°N, 16.0000°E)
Time: 15:50:18
(UTC+02:00)

Tiros 1 despin weight - Pass Details

Date: 09 August 2022
Orbit: 590 x 639 km, 48.2° (Epoch: 23 September)

Event Time Altitude Azimuth Distance (km) Brightness Sun altitude
Rises 17:39:20 0° 283° (WNW) 2,827 ? 25.5°
Reaches altitude 10° 17:41:38 10° 286° (WNW) 1,921 ? 25.1°
Maximum altitude 17:46:01 72° 10° (N) 624 ? 24.3°
Drops below altitude 10° 17:50:24 10° 96° (E) 1,917 ? 23.5°
Sets 17:52:42 0° 99° (E) 2,820 ? 23.1°
